Regional Weather Roundup
Issued by NWS

Home | Current Version | Previous Version | Graphics & Text | Print | Product List | Glossary On
Versions: 1 2 3 4 5 6 7 8 9 10 11 12 13 14 15 16 17 18 19 20 21 22 23 24 25 26 27 28 29 30 31 32 33 34 35 36 37 38 39 40 41 42 43 44 45 46 47 48 49 50
000
ASUS43 KMKX 060921
RWRWI

WISCONSIN REGIONAL WEATHER ROUNDUP
NATIONAL WEATHER SERVICE MILWAUKEE/SULLIVAN WI
400 AM CDT WED MAY 06 2015

NOTE: "FAIR" INDICATES FEW OR NO CLOUDS BELOW 12,000 FEET WITH NO
SIGNIFICANT WEATHER AND/OR OBSTRUCTIONS TO VISIBILITY.

WIZ001-002-006>008-014>016-023>028-061000-
NORTHWEST WISCONSIN

CITY           SKY/WX    TMP DP  RH WIND       PRES   REMARKS
SUPERIOR ARPT  CLOUDY    41  35  77 NE5       30.14F
ASHLAND        MOCLDY    44  33  65 SE3       30.16F
HAYWARD        CLOUDY    56  42  59 SE8G18    30.14F
SIREN          RAIN      54  49  83 S10G16    30.12S
CUMBERLAND     CLOUDY    48  46  93 SE6       30.14S
RICE LAKE      RAIN      50  47  90 E7        30.15F
CHETEK         CLOUDY    51  49  94 E8        30.15S
LADYSMITH      RAIN      50  48  92 SE9       30.18F
EAU CLAIRE     CLOUDY    53  50  89 E6        30.14S
MENOMONIE      CLOUDY    53  51  92 E7        30.13F
NEW RICHMOND   CLOUDY    53  52  96 SE6       30.12S
OSCEOLA        CLOUDY    54  53  97 SE9       30.14S
$$

WIZ003>005-009-010-017-018-061000-
NORTH CENTRAL WISCONSIN

CITY           SKY/WX    TMP DP  RH WIND       PRES   REMARKS
MANITOWISH WTR CLOUDY    51  29  42 S6        30.19F
ARBOR VITAE    CLOUDY    52  27  37 SE6       30.20S
WOODRUFF       CLOUDY    52  27  37 SE6       30.20S
RHINELANDER    CLOUDY    51  28  41 SE3       30.21F
EAGLE RIVER    CLOUDY    46  30  54 S5        30.21S
LAND O LAKES   MOCLDY    35  33  92 CALM      30.22S
PHILLIPS       CLOUDY    53  35  50 SE6       30.17F
TOMAHAWK       CLOUDY    52  32  46 CALM      30.20F
MEDFORD        LGT RAIN  47  44  89 E8        30.18F
MERRILL        LGT RAIN  52  37  57 S6        30.22R
$$

WIZ029-030-035-036-043>047-061000-
CENTRAL WISCONSIN

CITY           SKY/WX    TMP DP  RH WIND       PRES   REMARKS
WAUSAU         LGT RAIN  48  43  82 E7        30.19F
MOSINEE        HVY RAIN  46  43  87 SE6       30.21S
MARSHFIELD     CLOUDY    51  47  86 SE10      30.17F
STEVENS POINT  RAIN      50  42  76 E3        30.21S
WAUPACA        CLOUDY    54  42  63 CALM      30.21S
WAUTOMA        CLOUDY    50  48  92 E3        30.21S
WISC RAPIDS    CLOUDY    51  46  83 E7        30.20F
CAMP DOUGLAS   CLOUDY    50  50 100 E7        30.16F
$$

WIZ011>013-019>022-031-037>040-048>050-061000-
NORTHEAST WISCONSIN

CITY           SKY/WX    TMP DP  RH WIND       PRES   REMARKS
ANTIGO         CLOUDY    49  34  55 SE10      30.21F
SHAWANO        CLOUDY    53  44  71 CALM      30.22S
OCONTO         CLOUDY    48  44  87 CALM      30.22R
STURGEON BAY   MOCLDY    46  32  57 SE5       30.25S
GREEN BAY      CLOUDY    52  42  69 CALM      30.21F
MANITOWOC      CLOUDY    48  44  86 E5        30.22F
APPLETON       CLOUDY    52  37  58 E5        30.21S
CLINTONVILLE   CLOUDY    52  39  62 N3        30.21F
OSHKOSH        CLOUDY    50  43  77 SE5       30.20S
$$

WIZ032>034-041-042-053>061-061000-
SOUTHWEST WISCONSIN

CITY           SKY/WX    TMP DP  RH WIND       PRES   REMARKS
LA CROSSE      CLOUDY    56  53  90 SE5       30.13F
SPARTA         CLOUDY    53  51  94 E5        30.16S FOG
VIROQUA        CLOUDY    51  51 100 E8        30.14F VSB 1
BOSCOBEL       CLOUDY    54  51  90 NE3       30.15F FOG
PRAIRIE DU CHI CLOUDY    53  51  93 SE5       30.13F FOG
PLATTEVILLE    CLOUDY    52  51  97 E13       30.14F VSB 1/2
$$

WIZ056-057-062-063-064-067-068-061000-
SOUTH CENTRAL WISCONSIN

CITY           SKY/WX    TMP DP  RH WIND       PRES   REMARKS
REEDSBURG      CLOUDY    51  50  97 SE3       30.17S FOG
BARABOO/DELLS  NOT AVBL
LONE ROCK      CLOUDY    52  50  93 E8        30.16F FOG
MINERAL POINT  FOG       52  50  93 E7        30.14F VSB 1/4
MADISON        CLOUDY    51  49  92 SE8       30.18S FOG
MIDDLETON      CLOUDY    52  52  98 SE5       30.18S
WATERTOWN      CLOUDY    47  43  84 E5        30.19R
MONROE         FOG       50  50 100 E6        30.16S VSB 1/4
JANESVILLE     CLOUDY    50  46  87 E8        30.17F FOG
$$

WIZ051-052-058>065-066-070>072-061000-
SOUTHEAST WISCONSIN

CITY           SKY/WX    TMP DP  RH WIND       PRES   REMARKS
MILWAUKEE      CLOUDY    46  38  73 CALM      30.21S
WAUKESHA       CLOUDY    45  37  76 CALM      30.21R
MILWAUKEE/TIMM CLOUDY    45  37  76 NE3       30.21S
RACINE         CLOUDY    47  44  90 CALM      30.21F FOG
BURLINGTON     CLOUDY    46  44  94 E6        30.19F
KENOSHA        CLOUDY    48  46  93 E6        30.19F
FOND DU LAC    CLOUDY    49  43  80 E3        30.19F
SHEBOYGAN      CLOUDY    46  42  86 E3        30.21F
WEST BEND      MOCLDY    45  39  81 CALM      30.20S
JUNEAU         CLOUDY    48  44  87 CALM      30.20F
$$

LSZ147-162-061000-
LAKE SUPERIOR

STATION/POSITION TIME  TEMP    WIND        PRES    WAVE
                       AIR SEA DIR/SP/G            HT/PER
                 (UTC) (F)     (DEG/KT/KT) (MB)    (FT/S)
W MID LAKE BUOY  0850   41 35  360/  4/  4 1022.8S   1
DEVILS ISLAND    0900   47      90/ 10/ 10 1022.1F
PORT WING        0800   43     120/  3/  5 1021.0
SAXON HARBOR     0800   45        CALM     1021.0F
$$

LMZ867-665-643>646-061000-
LAKE MICHIGAN

STATION/POSITION TIME  TEMP    WIND        PRES    WAVE
                       AIR SEA DIR/SP/G            HT/PER
                 (UTC) (F)     (DEG/KT/KT) (MB)    (FT/S)
CHAMBERS ISLAND  0800   45        CALM     1023.7F
NORTHPORT PIER   0800   44     150/  3/  4 1023.7F
SISTER BAY       0802   47        CALM       N/A
KEWAUNEE LAKESHO 0900   44      60/  2/  5 1022.6F
SHEBOYGAN LAKESH 0900   44      70/  5/  6 1023.6F
PORT WASHINGTON  0800   47      40/  5/  6 1023.7F
ATWATER BUOY     0900   44      10/  6/  8 1023.8F
MILWAUKEE LAKESH 0900   45      30/  5/  6   N/A
KENOSHA   LAKESH 0900   44      70/  3/  4 1022.4F
$$

TC  - TEMPERATURE IN CELSIUS
VSB - VISIBILITY IN STATUTE MILES
WCI - WIND CHILL INDEX
HX  - HEAT INDEX




USA.gov is the U.S. government's official web portal to all federal, state and local government web resources and services.